Regional Weather Roundup
Issued by NWS

Home | Current Version | Previous Version | Graphics & Text | Print | Product List | Glossary On
Versions: 1 2 3 4 5 6 7 8 9 10 11 12 13 14 15 16 17 18 19 20 21 22 23 24 25 26 27 28 29 30 31 32 33 34 35 36 37 38 39 40 41 42 43 44 45 46 47 48 49 50
000
ASUS45 KSLC 300210
RWRUT

UTAH REGIONAL WEATHER ROUNDUP
NATIONAL WEATHER SERVICE SALT LAKE CITY UT
800 PM MDT WED JUL 29 2015

UTZ001>011-023>025-300300-

NORTHERN UTAH

CITY           SKY/WX    TMP DP  RH WIND       PRES   REMARKS
BRIGHAM CITY   CLEAR     82  10   6 CALM      30.22S
HILL AFB       NOT AVBL
LOGAN          CLEAR     80  21  11 NW5       30.23S
OGDEN          CLEAR     80  27  14 W5        30.22S
PROVO AIRPORT  NOT AVBL
SALT LAKE CITY PTCLDY    84  29  13 NW7       30.20S
VERNAL         CLEAR     82  20  10 SW3       30.22S
WENDOVER       CLEAR     82  28  14 CALM      30.20F
HEBER CITY     CLEAR     81  30  16 W7        30.27S
WEST JORDAN    CLEAR     81  32  17 NW8       30.24S

$$

UTZ012>022-026-027-300300-

SOUTHERN/CENTRAL UTAH

CITY           SKY/WX    TMP DP  RH WIND       PRES   REMARKS
BLANDING       PTCLDY    85  34  16 SE3       30.31R
BRYCE CANYON   PTCLDY    75  32  20 NW3       30.38R
CEDAR CITY     PTCLDY    85  23  10 N7        30.22R
DELTA          CLEAR     87  21   9 N6        30.20S
HANKSVILLE     CLEAR     90  28  11 SE3       30.12S
MILFORD        CLEAR     89  27  10 NE12      30.18S
MOAB/CYNLANDS  CLEAR     91  23   8 SW6       30.11R
PRICE          CLEAR     84  22  10 NW12      30.26R
ST GEORGE      CLEAR     99  34  10 W10       29.99R HX  93
KANAB          PTCLDY    86  34  15 W8        30.19R

$$

REGIONAL REPORTS     COLORADO/ARIZONA

CITY           SKY/WX    TMP DP  RH WIND       PRES   REMARKS
CRAIG, CO      PTCLDY    77  24  14 NW5       30.30R
GRAND JUNCTION PTCLDY    87  24  10 CALM      30.15R
RIFLE          PTCLDY    84  26  12 N6        30.22R
MONTROSE       MOCLDY    81  36  19 NW5       30.25R
CORTEZ         CLEAR     79  44  28 S6        30.26R
PAGE, AZ       PTCLDY    94  26   9 SE5       30.08S
GRAND CANYON   MOCLDY    82  33  17 SE7       30.30R
KINGMAN        CLOUDY    89  55  31 SW18      30.06R
FLAGSTAFF      CLOUDY    71  46  40 S6        30.35R

$$

REGIONAL REPORTS    NEVADA/IDAHO/WYOMING

CITY           SKY/WX    TMP DP  RH WIND       PRES   REMARKS
LAS VEGAS, NV  CLOUDY    93  50  23 SW12      29.91S HX  90
ELY            CLEAR     84  22  10 NE8       30.26S
ELKO           SUNNY     87  14   6 W8        30.20S
POCATELLO, ID  PTCLDY    81  33  17 CALM      30.25S
BURLEY         CLEAR     80  41  24 CALM      30.19F
EVANSTON, WY   PTCLDY    72  17  12 W15       30.40R
ROCK SPRINGS   CLEAR     73  12   9 W7        30.36R
KEMMERER       CLEAR     72  27  18 NW10      30.41R

$$


USA.gov is the U.S. government's official web portal to all federal, state and local government web resources and services.